Temp
53 53 54 54 54 55 55 57 61 63 63 63 63 61 61 60 59 56 56 56 54 54
51 52 52 53 53 54 56 59 58 57 57 58 58 59 60 58 58 57 56 55 55 53
48 50 51 51 51 52 53 55 54 54 55 55 55 56 55 55 54 54 52 51 50 47
46 48 49 49 50 50 52 52 52 52 52 52 52 52 51 49 49 48 47 47 47 44
44 45 45 45 48 48 48 49 48 49 48 47 48 47 46 45 44 43 44 43 42 40
42 42 44 45 48 48 47 44 44 44 43 43 43 44 45 45 43 42 42 42 41 40
43 43 45 46 46 45 42 41 41 41 41 41 40 41 42 41 40 39 39 40 39 39
43 42 44 44 44 44 44 40 39 39 40 40 42 43 39 39 38 37 36 36 37 36
41 41 41 41 41 41 41 40 39 39 41 41 43 44 42 39 36 35 34 34 34 35
40 39 39 39 38 38 37 38 37 38 39 40 41 43 41 39 35 34 33 33 34 34
38 37 37 36 36 35 35 35 35 35 36 37 40 41 40 38 33 33 32 33 33 33
37 36 35 34 34 34 33 32 32 33 33 33 35 40 39 35 30 27 28 31 31 32
37 36 34 34 33 34 34 33 34 32 27 35 24 40 39 31 26 23 28 29 31 39
36 35 34 33 34 33 23 22 23 29 30 27 31 33 41 39 30 29 28 28 28 30
MSLP
1016.28 1016.08 1015.75 1015.47 1015.15 1014.83 1014.53 1014.03 1013.72 1013.63 1013.48 1013.71 1013.71 1014.12 1014.37 1014.72 1014.90 1014.97 1015.26 1015.61 1016.06 1016.40
1016.46 1016.19 1015.89 1015.40 1015.05 1014.87 1014.51 1014.28 1013.83 1013.92 1013.91 1014.14 1014.17 1014.08 1014.28 1014.54 1014.75 1014.87 1015.03 1015.23 1015.48 1015.85
1016.99 1016.61 1016.18 1015.72 1015.41 1015.18 1014.95 1014.54 1014.42 1014.33 1014.29 1014.41 1014.41 1014.28 1014.43 1014.65 1014.76 1014.88 1015.21 1015.43 1015.58 1016.01
1017.44 1017.02 1016.68 1016.37 1016.01 1015.75 1015.36 1015.15 1014.89 1014.90 1014.85 1014.86 1015.02 1015.04 1014.96 1015.06 1015.11 1015.12 1015.26 1015.63 1015.82 1016.30
1017.85 1017.42 1016.98 1016.87 1016.59 1016.33 1016.18 1015.84 1015.73 1015.57 1015.54 1015.66 1015.72 1015.58 1015.80 1016.10 1016.25 1016.24 1016.22 1016.27 1016.38 1016.74
1018.12 1017.80 1017.57 1017.24 1017.06 1016.95 1016.91 1016.67 1016.48 1016.45 1016.51 1016.59 1016.42 1016.36 1016.34 1016.80 1016.97 1016.97 1017.13 1017.25 1017.49 1017.17
1018.49 1018.38 1018.26 1017.94 1017.70 1017.48 1017.48 1017.48 1017.41 1017.30 1017.31 1017.08 1017.11 1017.19 1017.13 1017.40 1017.46 1017.65 1017.76 1018.14 1018.04 1018.07
1018.93 1018.85 1018.58 1018.24 1018.09 1018.20 1018.24 1018.18 1018.20 1018.08 1017.85 1017.70 1017.93 1017.85 1017.98 1018.14 1018.19 1018.33 1018.43 1018.41 1018.38 1018.49
1019.16 1019.05 1019.03 1018.87 1019.03 1019.03 1019.00 1019.07 1018.73 1018.55 1018.46 1018.56 1018.48 1018.39 1018.55 1018.72 1018.90 1019.20 1019.31 1019.34 1019.25 1019.33
1019.50 1019.64 1019.67 1019.81 1019.87 1019.83 1019.81 1019.67 1019.49 1019.35 1019.37 1019.34 1019.28 1019.26 1019.40 1019.34 1019.43 1019.56 1019.78 1020.01 1020.13 1020.23
1020.12 1020.21 1020.32 1020.36 1020.38 1020.48 1020.49 1020.37 1020.33 1020.34 1020.39 1020.19 1020.06 1020.06 1020.13 1020.11 1020.23 1020.45 1020.63 1020.59 1020.58 1020.66
1020.63 1020.56 1020.60 1020.73 1020.93 1021.14 1021.27 1021.37 1021.26 1021.20 1021.12 1020.93 1020.75 1020.63 1020.55 1020.68 1020.95 1021.07 1021.13 1021.06 1020.99 1020.90
1020.87 1020.91 1021.04 1021.24 1021.53 1021.71 1021.85 1021.96 1021.97 1021.85 1021.73 1021.57 1021.31 1020.96 1020.93 1021.16 1021.39 1021.68 1021.49 1021.39 1021.22 1021.02
1021.15 1021.25 1021.58 1021.83 1021.96 1021.95 1022.16 1022.48 1022.72 1022.59 1022.35 1022.03 1021.58 1021.30 1021.27 1021.35 1021.41 1021.56 1021.57 1021.54 1021.50 1021.36
Wind_Speed
7 4 4 3 3 4 3 4 2 1 1 2 3 3 3 3 4 5 7 10 7 7
7 7 5 7 5 3 4 3 3 4 5 4 4 3 3 2 3 4 5 7 8 6
7 7 7 6 7 7 6 7 6 6 5 4 4 3 3 2 1 2 2 1 3 2
6 7 6 7 7 7 6 6 6 6 6 6 5 4 3 3 2 4 4 2 4 4
6 6 6 6 7 8 9 8 8 7 8 7 6 6 6 6 6 4 3 3 4 4
6 7 6 6 8 9 8 7 8 8 8 7 7 6 6 5 5 5 5 3 0 3
6 6 6 7 7 7 7 7 7 7 6 6 7 6 7 5 6 5 6 5 5 5
6 5 6 8 8 7 7 7 6 6 7 7 6 5 5 5 6 6 7 6 6 5
6 7 7 7 7 7 8 6 6 8 8 8 6 13 12 8 7 8 7 7 8 8
6 6 7 6 6 7 7 8 10 10 9 9 8 14 13 14 7 7 7 6 5 6
6 6 6 5 6 6 7 8 7 8 8 7 9 15 14 14 7 7 6 6 5 4
5 6 5 7 7 7 8 8 6 5 6 6 5 13 12 8 5 4 3 3 2 3
5 6 6 7 6 5 5 5 4 5 4 7 3 8 10 7 2 2 2 2 4 6
5 6 6 5 4 3 3 4 3 3 1 2 4 6 10 8 4 2 2 2 2 2
Wind_Direction
355 344 322 317 322 325 303 275 299 257 109 273 253 234 241 234 236 198 210 221 212 231
344 346 335 333 333 323 318 284 119 75 63 23 315 273 278 280 277 226 214 221 223 212
358 358 355 1 4 3 5 24 36 43 39 19 7 31 102 133 95 93 54 54 148 124
358 357 4 16 15 2 15 27 41 32 33 27 13 18 29 36 50 125 134 99 144 118
357 3 25 18 21 19 22 28 32 39 47 40 33 36 36 22 19 34 45 58 111 133
10 9 15 19 31 35 27 29 37 43 47 42 36 42 55 53 41 43 35 35 343 118
25 16 16 30 39 47 34 36 44 44 47 54 50 45 51 54 65 58 58 46 45 41
30 29 32 37 38 47 54 49 41 50 50 51 55 62 64 65 69 74 77 69 64 72
39 39 37 39 45 49 62 59 56 53 56 55 58 66 75 77 69 61 57 53 49 41
53 54 49 52 53 54 56 56 50 47 48 52 55 67 73 79 72 79 72 61 53 55
69 71 66 65 58 55 54 53 56 53 44 50 61 68 72 72 61 59 54 58 64 74
87 87 76 68 60 54 71 70 54 49 53 53 51 70 70 70 53 56 49 63 62 107
100 91 78 80 75 73 70 75 74 70 23 72 10 65 79 79 65 58 51 3 21 41
100 96 103 103 104 103 80 66 75 95 77 18 61 46 63 70 66 65 62 56 29 341